Temperature
18 18 18 18 18 18 18 18 18 18 18 18 18 18 18 18 18 18 18 18 18 18 18 18 18 18 18 18 18 18 18 18 18 18 18 18 18 18 18 18 18 18 18
18 18 18 18 18 18 18 18 18 18 18 18 18 18 18 18 18 18 18 18 18 18 18 18 18 18 18 18 18 18 18 18 18 18 18 18 18 18 18 18 18 18 18
18 18 18 18 18 18 18 18 18 18 18 18 18 18 18 18 18 18 18 18 18 18 18 18 18 18 18 18 18 17 17 17 18 18 18 18 18 18 18 18 18 18 18
18 18 18 18 18 18 18 18 18 18 18 18 18 18 17 17 17 17 18 18 18 18 18 18 17 17 17 17 17 17 17 17 17 17 17 18 18 18 18 18 17 18 18
18 18 18 18 18 18 18 18 18 18 18 18 18 17 17 17 17 17 17 17 17 17 17 17 17 17 17 17 17 17 17 17 17 17 17 17 17 17 17 17 17 17 17
18 18 18 18 18 18 18 18 18 18 18 18 18 17 17 17 17 17 17 17 17 17 17 17 17 17 17 17 17 17 17 17 17 17 17 17 17 17 17 17 17 17 17
18 18 18 18 18 18 18 18 17 17 17 17 17 17 17 17 17 17 17 17 17 17 17 17 17 17 17 17 17 17 17 17 17 17 17 17 17 17 17 17 17 17 17
18 18 18 18 18 18 18 17 17 17 17 17 17 17 17 17 17 17 17 17 17 17 17 17 17 17 17 17 17 17 17 17 17 17 17 17 17 17 17 17 17 17 17
18 18 18 18 18 17 17 17 17 17 17 17 17 17 17 17 17 17 17 17 17 17 17 17 17 17 16 16 17 17 17 17 17 17 17 16 17 17 17 17 17 17 17
18 18 18 18 17 17 17 17 17 17 17 17 17 17 17 17 16 16 16 16 16 16 16 16 16 16 16 16 16 16 17 17 17 16 16 16 16 16 16 16 16 16 16
18 17 17 17 17 17 17 17 17 17 17 17 17 16 17 17 16 16 16 16 16 16 16 16 16 16 16 16 16 16 16 16 16 16 16 16 16 16 16 16 16 16 16
18 17 17 17 17 17 17 17 17 17 17 17 17 16 16 16 16 16 16 16 16 16 16 16 16 16 16 16 16 16 16 16 16 16 16 16 16 16 16 16 16 16 16
18 18 17 17 17 17 17 17 17 17 16 16 16 16 16 16 16 16 16 16 16 16 16 16 16 16 16 16 16 16 16 16 16 16 16 16 16 16 16 16 16 16 16
18 18 17 17 17 17 17 17 17 16 16 16 16 16 16 16 16 16 16 16 16 16 16 16 16 16 16 15 16 16 15 16 16 15 15 15 15 15 15 15 15 15 15
18 18 17 17 17 17 17 17 16 16 16 16 16 16 16 16 16 16 16 16 16 16 16 16 16 15 15 15 15 15 15 15 15 15 15 15 15 15 15 15 15 15 15
18 18 17 17 17 17 17 17 16 16 16 16 16 16 16 16 16 16 16 16 15 15 15 15 15 15 15 15 15 15 15 15 15 15 15 15 15 15 15 15 15 15 15
18 18 18 17 17 17 17 16 16 16 16 16 16 16 16 16 16 16 15 15 15 15 15 15 15 15 15 15 15 15 15 15 15 15 15 15 15 15 15 15 15 14 15
18 18 18 17 17 17 17 16 16 16 16 16 16 16 16 15 15 15 15 15 15 15 15 15 15 15 15 15 15 14 14 14 14 14 14 14 14 14 14 14 14 14 14
18 18 18 17 17 17 17 16 16 16 16 16 16 15 15 15 15 15 15 15 15 15 15 14 14 14 14 14 14 14 14 14 14 14 14 14 14 14 14 14 14 14 14
18 18 18 17 17 17 17 16 16 16 16 16 15 15 15 15 15 15 15 15 15 15 14 14 14 14 14 14 14 14 14 14 14 14 14 14 14 14 14 14 14 14 14
18 18 18 17 17 17 17 16 16 16 16 15 15 15 15 15 15 15 15 15 14 14 14 14 14 14 14 14 14 13 13 13 13 13 13 13 13 13 13 14 14 14 14
18 18 17 17 17 17 17 16 16 16 16 15 15 15 15 15 15 15 15 15 14 14 14 14 14 14 13 13 13 13 13 13 13 13 13 13 13 13 13 13 13 13 13
18 17 17 17 17 17 16 16 16 15 15 15 15 15 15 15 15 15 15 14 14 14 14 14 14 14 13 13 13 13 13 12 12 12 12 12 13 13 13 13 13 13 13
17 17 17 17 17 17 16 16 16 16 15 15 15 15 15 15 15 14 14 14 14 14 14 14 14 14 13 13 13 13 13 13 12 12 12 12 12 12 12 12 12 12 13
17 17 17 17 17 16 16 16 16 16 15 15 15 15 15 14 14 14 14 14 14 14 14 14 13 13 13 13 13 13 13 13 12 12 11 12 12 12 12 12 12 12 12
17 17 17 17 16 16 16 16 16 15 15 15 15 15 14 14 14 14 14 14 14 14 14 13 13 13 13 13 13 13 13 13 12 12 12 11 11 11 12 12 12 12 12
Wind_Speed
1 2 7 9 9 10 10 10 11 11 10 11 12 11 12 12 12 12 12 12 12 12 12 12 12 12 12 12 11 11 11 10 10 10 10 10 10 10 10 11 10 8 9
4 5 8 9 10 10 11 11 11 11 11 11 11 11 11 11 11 12 12 12 11 11 11 12 12 12 11 11 11 10 10 10 10 10 10 9 9 9 9 10 9 8 10
6 6 8 9 10 11 11 11 11 11 11 11 11 11 11 11 11 11 11 11 11 11 11 11 11 10 11 11 11 10 10 9 10 10 9 7 8 9 9 9 10 10 10
8 7 9 10 10 11 11 11 11 11 11 11 11 11 11 10 10 10 10 10 10 10 10 10 10 9 9 10 10 10 9 9 10 9 7 6 6 8 9 9 10 10 9
7 8 10 10 10 11 11 11 11 11 11 11 11 10 10 10 10 10 10 10 10 10 10 10 9 9 9 9 9 9 9 10 9 8 7 6 6 8 9 9 9 9 9
7 8 10 11 11 11 11 11 11 11 11 11 10 10 10 10 10 10 9 9 9 9 9 8 8 8 8 8 8 9 9 9 9 7 6 6 6 8 9 9 9 9 9
6 7 9 11 11 11 10 10 11 11 10 10 10 10 10 10 10 10 9 9 9 8 8 8 8 8 8 8 8 9 9 9 8 7 5 5 7 9 9 9 9 9 8
8 6 8 10 10 10 10 10 10 10 10 10 9 9 9 9 9 9 9 9 8 8 8 7 7 7 7 8 8 8 8 8 7 7 6 5 8 9 9 9 9 9 8
7 6 5 6 8 9 9 9 10 9 9 9 9 9 9 9 8 8 9 8 8 8 7 7 7 7 7 8 9 9 9 9 7 6 6 5 8 9 9 9 9 8 8
6 5 4 5 6 6 7 9 9 9 8 8 9 8 8 8 7 7 7 7 7 7 7 6 6 6 7 8 9 9 9 8 7 6 5 6 8 9 9 9 8 8 8
5 4 4 4 4 5 5 6 7 7 7 7 6 7 6 5 5 5 5 6 6 6 6 6 5 6 7 8 8 9 7 6 6 6 6 7 8 8 8 8 8 8 8
5 5 4 4 4 4 4 5 4 4 4 5 4 5 5 4 4 4 5 5 6 6 5 5 6 6 6 6 7 8 6 6 6 5 6 8 8 8 8 8 8 8 8
6 6 5 5 4 4 3 4 3 3 3 4 4 5 5 4 4 4 4 4 5 6 5 5 5 5 5 5 5 6 6 5 4 4 6 8 8 8 8 8 8 8 9
6 6 5 5 4 4 4 3 3 3 3 3 3 5 5 3 2 2 2 3 3 4 4 4 4 5 6 6 6 6 6 5 5 5 6 7 7 7 7 7 8 8 9
6 6 5 5 5 4 3 2 3 3 3 3 4 4 5 3 2 2 2 3 3 4 4 3 4 5 5 5 5 6 5 5 5 5 5 6 6 6 6 6 8 8 9
6 5 5 5 5 5 3 2 3 3 3 4 4 5 6 5 4 2 2 3 3 4 4 4 5 4 4 4 4 5 5 5 5 5 4 4 5 5 5 6 7 8 8
6 6 6 6 5 5 4 3 4 4 4 4 4 5 6 6 5 4 3 2 3 5 5 5 6 5 4 4 4 4 4 4 5 4 4 3 4 4 5 5 6 7 7
6 5 5 6 6 5 4 3 3 4 4 4 5 5 6 6 6 5 3 3 4 6 5 4 4 4 4 4 3 3 3 3 3 4 4 4 4 3 4 5 5 6 6
7 7 5 5 6 5 4 4 3 4 3 4 5 4 5 6 7 6 3 3 5 4 3 4 4 4 4 3 3 3 3 2 2 3 4 4 4 4 4 4 4 5 5
6 6 6 5 5 5 4 3 3 3 2 3 3 4 5 5 6 6 4 4 5 4 4 4 4 3 3 3 4 4 3 2 3 3 3 3 4 4 4 4 4 3 4
6 5 5 5 4 4 3 3 2 2 1 2 2 3 5 5 5 5 4 3 4 4 3 4 4 4 3 2 4 3 4 4 4 3 3 3 3 4 4 4 4 4 3
6 5 5 5 5 5 4 3 3 3 2 1 1 2 3 4 4 5 4 3 3 4 4 3 3 3 1 2 2 2 2 4 4 4 3 3 3 3 3 3 4 4 4
6 6 6 6 5 5 5 4 3 3 3 2 1 1 1 3 3 4 4 3 3 3 3 3 3 4 2 0 1 3 3 1 1 3 3 3 3 3 2 3 3 3 4
6 6 6 5 5 5 6 6 6 4 3 3 2 1 1 2 3 4 4 4 3 3 3 2 2 2 3 1 0 1 2 3 2 1 3 3 3 3 2 2 2 2 3
5 5 5 5 5 5 5 7 6 4 3 2 2 2 1 1 2 3 4 4 3 2 2 2 2 2 2 3 2 1 2 2 2 2 1 2 3 2 2 1 2 2 2
4 4 4 5 4 4 5 5 6 6 5 4 3 2 1 1 1 2 4 3 3 2 2 2 2 3 2 2 2 2 2 2 2 2 2 1 1 2 2 1 1 1 2
Wind_Direction
149 135 104 97 96 94 96 99 96 94 91 93 94 93 91 92 92 92 91 89 88 88 87 87 88 87 88 90 91 92 93 96 99 103 106 107 110 112 114 116 116 113 121
155 128 106 98 97 96 96 96 94 92 91 94 95 95 94 93 94 94 93 92 90 90 89 89 90 89 88 88 89 91 92 94 97 101 101 101 107 111 115 119 119 118 120
134 125 108 101 98 96 95 93 93 91 90 94 95 96 95 94 94 95 96 96 94 92 92 90 90 89 88 87 85 86 87 92 97 99 95 91 101 108 111 116 117 118 120
132 123 111 105 102 99 97 95 94 93 90 91 92 94 93 92 93 97 98 99 98 96 95 93 90 89 87 84 82 82 84 91 97 97 90 89 98 106 112 113 114 114 116
127 123 118 113 107 105 101 99 97 95 93 91 92 93 92 90 90 94 98 98 99 97 96 95 94 92 87 85 81 81 83 87 92 93 89 87 95 105 112 113 114 116 114
126 126 123 118 113 110 107 104 101 98 95 93 94 95 93 93 93 92 95 95 96 96 97 96 95 92 88 85 80 81 83 84 83 87 88 93 102 108 111 112 114 116 114
129 127 127 121 116 112 111 107 103 101 99 98 97 96 95 94 93 92 95 96 97 99 98 96 95 94 93 86 79 80 85 86 83 87 88 100 110 112 110 109 110 114 115
136 128 129 128 123 119 114 111 108 105 102 101 101 97 96 96 95 97 101 101 99 97 93 92 91 91 89 85 80 79 82 87 86 85 83 100 115 113 109 108 108 109 112
130 127 120 128 127 123 119 117 115 109 105 104 105 100 96 98 98 102 106 105 102 100 94 87 83 82 80 79 78 80 85 85 81 83 88 98 112 111 108 108 106 109 111
130 129 130 123 119 118 120 119 118 112 108 107 108 104 99 98 98 102 110 108 106 101 96 89 83 83 82 80 79 82 82 80 73 75 86 103 110 112 110 106 105 105 110
137 142 143 134 129 130 127 122 119 115 109 103 104 104 96 86 83 86 102 107 107 103 95 87 83 87 87 82 78 78 76 81 79 79 89 102 106 108 108 106 106 105 104
148 156 157 153 157 148 135 115 110 106 99 96 98 99 94 87 81 79 81 94 98 98 90 79 80 87 82 77 75 75 78 78 81 82 90 100 103 103 102 107 108 106 105
157 152 156 157 148 133 121 121 109 96 95 103 105 105 97 84 74 72 69 70 74 80 75 69 66 75 83 80 77 83 83 78 80 83 88 96 99 102 102 105 106 103 104
145 145 146 143 134 128 119 114 111 99 94 93 109 115 108 90 72 65 69 73 69 74 74 68 73 78 80 81 84 86 86 85 85 82 85 93 96 101 103 106 106 104 102
146 143 146 139 141 131 119 115 101 94 96 99 100 115 119 106 90 71 64 73 84 89 90 82 80 77 76 77 82 89 88 90 93 88 88 89 95 99 102 111 113 112 106
151 148 142 139 137 124 126 124 115 103 96 94 101 113 118 112 101 95 82 76 80 89 88 90 90 86 80 76 65 71 85 91 89 87 85 87 90 95 97 108 114 113 108
158 148 141 143 131 125 126 125 114 104 98 95 97 103 105 105 104 100 93 76 79 92 92 84 79 80 79 71 59 61 74 84 84 80 84 84 84 88 97 104 112 112 110
152 144 147 143 133 132 134 124 112 104 98 97 103 106 105 105 105 96 89 83 95 97 91 86 81 80 70 66 60 48 51 69 77 77 79 82 85 85 88 94 107 112 110
161 152 151 141 141 141 134 114 107 100 94 88 92 102 111 107 105 99 96 93 97 93 88 93 81 91 84 70 65 52 39 44 56 65 63 75 90 91 89 87 100 115 113
154 153 156 149 143 138 124 104 90 77 75 79 88 100 104 106 108 102 99 98 97 92 86 93 95 79 83 79 75 53 33 28 45 50 58 63 77 90 93 82 82 96 107
143 146 157 150 149 136 129 126 122 119 118 96 96 103 102 106 113 111 105 103 100 106 111 113 109 91 76 86 78 43 19 24 40 32 45 61 55 66 84 90 84 78 79
160 156 154 157 158 156 156 151 148 143 142 140 106 95 107 112 118 120 119 120 114 111 103 108 114 112 108 93 108 95 37 7 6 19 29 54 44 59 67 80 81 86 81
164 167 167 165 164 160 147 125 104 78 61 54 70 89 121 122 123 124 123 119 122 126 134 141 138 137 147 8 107 130 131 191 323 349 6 23 29 40 48 68 81 89 93
176 170 167 170 168 163 148 141 143 148 160 195 183 170 140 115 125 131 128 125 126 130 140 158 148 144 141 155 34 68 133 151 146 341 338 351 11 30 30 60 70 90 95
170 166 163 164 168 167 158 155 155 155 171 167 144 130 120 102 121 130 132 129 129 133 142 135 131 137 147 156 155 128 87 76 105 137 241 319 348 344 354 30 78 89 101
155 155 160 158 171 167 161 163 165 162 158 147 155 162 159 134 126 129 133 132 138 138 147 147 138 139 146 143 145 144 151 153 167 149 177 240 296 311 329 349 48 89 121
Height
1518 1517 1517 1515 1514 1513 1513 1513 1513 1513 1513 1513 1513 1513 1513 1513 1513 1514 1514 1514 1514 1515 1514 1515 1515 1515 1516 1516 1516 1516 1517 1517 1517 1518 1518 1519 1519 1519 1520 1521 1521 1522 1523
1518 1518 1517 1516 1516 1515 1514 1514 1514 1514 1514 1514 1514 1514 1514 1514 1514 1514 1515 1515 1515 1516 1516 1516 1516 1517 1517 1517 1517 1518 1518 1518 1519 1519 1519 1519 1520 1520 1521 1521 1522 1522 1523
1519 1519 1518 1518 1517 1516 1516 1516 1515 1515 1515 1515 1515 1515 1515 1515 1515 1515 1516 1516 1516 1516 1517 1517 1517 1518 1518 1518 1518 1519 1519 1519 1519 1520 1520 1520 1520 1521 1521 1522 1522 1523 1523
1520 1520 1519 1519 1518 1518 1517 1517 1517 1516 1516 1516 1516 1516 1516 1516 1516 1516 1516 1517 1517 1517 1517 1518 1518 1519 1519 1519 1519 1520 1520 1520 1520 1520 1521 1521 1521 1522 1522 1522 1523 1523 1524
1521 1521 1520 1520 1520 1519 1519 1518 1518 1518 1517 1517 1517 1517 1517 1517 1517 1517 1517 1517 1518 1518 1518 1519 1519 1519 1520 1520 1520 1521 1521 1521 1521 1521 1521 1522 1522 1522 1522 1523 1523 1523 1524
1522 1522 1522 1521 1521 1521 1520 1520 1519 1519 1519 1518 1518 1518 1518 1517 1517 1518 1518 1518 1518 1519 1519 1519 1520 1520 1520 1521 1521 1521 1522 1522 1522 1522 1522 1522 1523 1523 1523 1523 1524 1524 1524
1522 1523 1523 1523 1522 1522 1521 1521 1521 1520 1520 1519 1519 1519 1519 1518 1518 1518 1518 1519 1519 1520 1520 1520 1520 1521 1521 1522 1522 1522 1522 1522 1523 1523 1523 1523 1523 1524 1524 1524 1524 1524 1525
1523 1524 1524 1524 1523 1523 1523 1522 1522 1522 1521 1521 1520 1520 1520 1519 1519 1519 1520 1520 1520 1521 1521 1521 1521 1521 1522 1522 1523 1523 1523 1523 1523 1523 1524 1524 1524 1524 1524 1524 1525 1525 1525
1525 1525 1525 1525 1524 1524 1524 1524 1523 1523 1523 1522 1521 1521 1521 1520 1520 1520 1521 1521 1521 1521 1522 1522 1522 1522 1523 1523 1523 1523 1524 1524 1524 1524 1524 1525 1525 1525 1525 1525 1525 1525 1526
1525 1526 1525 1525 1525 1525 1525 1525 1524 1524 1523 1523 1523 1522 1522 1522 1521 1521 1522 1522 1522 1522 1523 1523 1523 1523 1524 1524 1524 1524 1524 1525 1525 1525 1525 1525 1525 1525 1525 1525 1525 1526 1526
1526 1526 1526 1526 1526 1526 1526 1525 1525 1525 1524 1524 1524 1523 1523 1523 1522 1522 1523 1523 1523 1523 1523 1524 1524 1524 1525 1525 1525 1525 1525 1525 1526 1526 1526 1526 1526 1526 1526 1526 1526 1526 1526
1526 1526 1527 1527 1527 1527 1526 1526 1526 1526 1525 1525 1525 1524 1524 1524 1524 1523 1523 1524 1524 1524 1524 1525 1525 1525 1525 1526 1526 1526 1526 1526 1526 1526 1526 1526 1526 1526 1526 1526 1526 1526 1526
1526 1526 1527 1527 1527 1527 1527 1527 1526 1526 1526 1526 1525 1525 1525 1525 1524 1524 1524 1524 1525 1525 1525 1525 1525 1526 1526 1526 1526 1526 1527 1527 1527 1527 1527 1527 1527 1526 1526 1526 1526 1526 1527
1526 1526 1527 1527 1527 1528 1528 1527 1527 1527 1527 1526 1526 1526 1525 1525 1525 1525 1525 1525 1525 1525 1525 1526 1526 1526 1526 1527 1527 1527 1527 1527 1527 1527 1527 1527 1527 1527 1527 1527 1527 1527 1527
1526 1526 1527 1527 1527 1528 1528 1527 1527 1527 1527 1527 1527 1526 1526 1526 1526 1526 1525 1525 1525 1526 1526 1526 1526 1526 1527 1527 1527 1527 1527 1527 1527 1527 1527 1527 1527 1527 1527 1527 1527 1527 1527
1525 1526 1527 1527 1528 1528 1528 1527 1527 1527 1527 1527 1527 1527 1527 1526 1526 1526 1526 1526 1526 1526 1526 1526 1526 1526 1526 1527 1527 1527 1527 1527 1528 1528 1527 1527 1527 1527 1527 1527 1527 1527 1527
1524 1525 1526 1527 1527 1527 1528 1528 1528 1528 1528 1528 1527 1527 1527 1527 1527 1527 1526 1526 1526 1526 1526 1526 1526 1526 1526 1527 1527 1527 1527 1527 1527 1528 1528 1528 1527 1527 1527 1527 1527 1527 1527
1524 1525 1526 1526 1527 1527 1528 1528 1528 1528 1528 1528 1528 1528 1528 1527 1527 1527 1527 1526 1526 1526 1526 1526 1525 1526 1526 1526 1527 1527 1528 1528 1528 1528 1528 1528 1528 1527 1527 1527 1527 1527 1528
1523 1524 1525 1526 1527 1527 1528 1528 1528 1528 1528 1528 1528 1528 1528 1528 1527 1527 1527 1526 1526 1526 1526 1525 1525 1525 1526 1526 1527 1527 1527 1528 1528 1528 1528 1528 1528 1528 1527 1527 1527 1527 1528
1522 1523 1524 1525 1526 1526 1527 1527 1528 1528 1528 1528 1528 1528 1528 1527 1527 1527 1527 1526 1526 1526 1526 1526 1525 1526 1526 1526 1526 1527 1527 1528 1528 1528 1528 1528 1528 1528 1528 1527 1527 1527 1527
1520 1521 1522 1523 1524 1525 1526 1526 1527 1527 1527 1527 1527 1527 1527 1527 1527 1527 1526 1526 1526 1526 1526 1526 1526 1525 1526 1526 1526 1526 1527 1528 1528 1528 1528 1527 1528 1528 1528 1527 1527 1527 1527
1518 1519 1520 1521 1523 1524 1524 1525 1526 1526 1527 1527 1527 1527 1527 1527 1527 1526 1526 1526 1526 1525 1525 1525 1525 1525 1525 1526 1526 1526 1527 1529 1528 1528 1528 1527 1527 1528 1527 1527 1527 1527 1527
1516 1517 1519 1520 1521 1522 1523 1524 1525 1526 1526 1526 1526 1526 1526 1526 1526 1526 1526 1525 1525 1525 1525 1525 1525 1525 1525 1526 1526 1526 1526 1527 1527 1528 1527 1527 1527 1527 1527 1527 1527 1527 1527
1514 1515 1517 1518 1519 1520 1521 1522 1523 1523 1524 1524 1525 1525 1525 1526 1526 1525 1525 1525 1525 1524 1524 1524 1524 1524 1524 1525 1525 1525 1526 1526 1526 1527 1527 1527 1527 1526 1526 1526 1526 1526 1526
1512 1514 1515 1516 1517 1518 1519 1520 1521 1522 1523 1523 1524 1524 1524 1524 1524 1524 1524 1524 1524 1523 1523 1523 1523 1523 1524 1524 1524 1524 1525 1525 1525 1525 1525 1525 1525 1525 1525 1525 1525 1525 1525
1511 1512 1513 1514 1515 1516 1517 1518 1519 1520 1521 1521 1522 1522 1522 1522 1523 1523 1523 1523 1522 1522 1522 1522 1522 1522 1522 1523 1523 1523 1523 1523 1523 1524 1523 1523 1523 1524 1524 1524 1524 1524 1524